This is the latest recevied weather packets stored in our database for station/object SP8PUB-10. If no packets are shown the sender has not sent any weather packets the latest 10 day(s).
| Time | Temp. | Humidity | Pressure | Rain* | Wind** | Luminosity | Snow |
|---|---|---|---|---|---|---|---|
| 1777645221 | 17.22° C | 48% | 1024.9 hPa | - | - | - | - |
| 1777644321 | 17.22° C | 48% | 1025 hPa | - | - | - | - |
| 1777643421 | 17.22° C | 47% | 1025.1 hPa | - | - | - | - |
| 1777642521 | 17.22° C | 47% | 1025 hPa | - | - | - | - |
| 1777641620 | 17.78° C | 47% | 1025.2 hPa | - | - | - | - |
| 1777640720 | 17.78° C | 47% | 1025.4 hPa | - | - | - | - |
| 1777639820 | 17.78° C | 47% | 1025.5 hPa | - | - | - | - |
| 1777638920 | 18.33° C | 46% | 1025.7 hPa | - | - | - | - |
| 1777638020 | 18.33° C | 46% | 1025.5 hPa | - | - | - | - |
| 1777637120 | 17.78° C | 46% | 1025.8 hPa | - | - | - | - |
| 1777636220 | 17.78° C | 46% | 1025.8 hPa | - | - | - | - |
| 1777635320 | 17.78° C | 45% | 1026.1 hPa | - | - | - | - |
| 1777634420 | 18.33° C | 46% | 1026 hPa | - | - | - | - |
| 1777633520 | 17.78° C | 47% | 1026.1 hPa | - | - | - | - |
| 1777632619 | 18.33° C | 46% | 1026.2 hPa | - | - | - | - |
| 1777631719 | 18.33° C | 47% | 1026.3 hPa | - | - | - | - |
| 1777629924 | 17.78° C | 46% | 1026.5 hPa | - | - | - | - |
| 1777629023 | 17.78° C | 46% | 1026.7 hPa | - | - | - | - |
| 1777628123 | 17.22° C | 46% | 1026.8 hPa | - | - | - | - |
| 1777627223 | 17.78° C | 45% | 1027 hPa | - | - | - | - |
| 1777626323 | 18.33° C | 45% | 1027 hPa | - | - | - | - |
| 1777625423 | 18.33° C | 43% | 1027.3 hPa | - | - | - | - |
| 1777624523 | 18.89° C | 42% | 1027.3 hPa | - | - | - | - |
| 1777623623 | 17.22° C | 43% | 1026.8 hPa | - | - | - | - |
| 1777622723 | 15.56° C | 47% | 1027.4 hPa | - | - | - | - |
* Rain since midnight (hover to see other rain measurements)
** Current wind speed in m/s (hover to see current wind gust speed)